EW2493 Weather Reports


time (UTC)temp
C
wind
direction
speed
KPH
gust
KPH
rain 1hr
cm
rain 24hr
cm
rain mn
cm
humidity
%
barometer
mb
20260507093058 -2 88 0.0 1.6 0.00 0.00 0.00 79 1005.9
20260507091556 -2 88 0.0 1.6 0.00 0.00 0.00 80 1006.0
20260507084550 -1 88 0.0 1.6 0.00 0.00 0.00 74 1006.2
20260507083049 -1 88 0.0 1.6 0.00 0.00 0.00 76 1006.1
20260507081544 0 88 0.0 0.0 0.00 0.00 0.00 72 1006.2
20260507080044 0 88 0.0 0.0 0.00 0.00 0.00 71 1006.2
20260507074546 1 89 0.0 1.6 0.00 0.00 0.00 70 1006.2
20260507073040 1 46 0.0 1.6 0.00 0.00 0.00 70 1006.2
20260507071536 1 74 1.6 4.8 0.00 0.00 0.00 71 1006.3
20260507070043 1 147 0.0 4.8 0.00 0.00 0.00 69 1006.2
20260507064535 1 159 4.8 8.0 0.00 0.00 0.00 68 1006.1
20260507063031 2 168 3.2 9.7 0.00 0.00 0.00 67 1006.2
20260507061528 2 160 4.8 9.7 0.00 0.00 0.00 67 1006.3
20260507060025 2 148 4.8 11.3 0.00 0.00 0.00 67 1006.3
20260507054523 2 154 6.4 12.9 0.00 0.00 0.00 66 1006.4
20260507053021 2 151 4.8 9.7 0.00 0.00 0.00 66 1006.5
20260507051518 2 159 4.8 11.3 0.00 0.00 0.00 66 1006.6
20260507050025 2 140 3.2 11.3 0.00 0.00 0.00 66 1006.6
20260507044512 2 130 4.8 9.7 0.00 0.00 0.00 64 1006.8
20260507043011 2 127 3.2 6.4 0.00 0.00 0.00 66 1007.0
20260507041509 2 112 3.2 6.4 0.00 0.00 0.00 64 1007.3
20260507040006 3 102 3.2 8.0 0.00 0.00 0.00 63 1007.5
20260507034505 2 117 1.6 4.8 0.00 0.00 0.00 62 1007.7
20260507033005 3 82 1.6 6.4 0.00 0.00 0.00 60 1007.8
20260507031506 3 80 1.6 4.8 0.00 0.00 0.00 60 1007.9
20260507030005 3 81 1.6 6.4 0.00 0.00 0.00 58 1007.9
20260507024506 4 57 3.2 6.4 0.00 0.00 0.00 57 1007.9
20260507023004 5 69 1.6 4.8 0.00 0.00 0.00 55 1007.8
20260507021503 5 69 1.6 6.4 0.00 0.00 0.00 54 1007.7
20260507020001 6 69 1.6 6.4 0.00 0.00 0.00 53 1007.7
20260507013104 7 47 1.6 4.8 0.00 0.00 0.00 48 1007.6
20260507011600 8 39 3.2 6.4 0.00 0.00 0.00 45 1007.6
20260507010059 8 40 1.6 4.8 0.00 0.00 0.00 43 1007.7
20260507004558 8 12 6.4 9.7 0.00 0.00 0.00 42 1007.7
20260507003101 9 348 6.4 9.7 0.00 0.00 0.00 40 1007.7
20260507001557 9 327 6.4 12.9 0.00 0.00 0.00 39 1007.9
20260507000054 10 5 3.2 8.0 0.00 0.00 0.00 39 1008.0
20260506234603 10 274 1.6 9.7 0.00 0.00 0.00 38 1008.1
20260506233055 9 306 0.0 17.7 0.00 0.00 0.00 39 1008.2
20260506231554 10 317 11.3 22.5 0.00 0.00 0.00 39 1008.2
20260506230048 10 308 3.2 22.5 0.00 0.00 0.00 40 1008.3
20260506224547 10 304 8.0 22.5 0.00 0.00 0.00 40 1008.4
20260506223045 10 292 6.4 24.1 0.00 0.00 0.00 38 1008.6
20260506221545 10 272 3.2 17.7 0.00 0.00 0.00 38 1008.7
20260506220041 10 296 9.7 30.6 0.00 0.00 0.00 39 1008.9
20260506214540 10 300 16.1 29.0 0.00 0.00 0.00 38 1009.2
20260506213038 9 277 1.6 17.7 0.00 0.00 0.00 39 1009.3
20260506211533 8 353 9.7 20.9 0.00 0.00 0.00 41 1009.6
20260506210034 8 328 14.5 27.4 0.00 0.00 0.00 41 1009.7
20260506204529 8 291 12.9 25.7 0.00 0.00 0.00 41 1009.8
20260506203036 8 311 9.7 25.7 0.00 0.00 0.00 40 1010.0
20260506201526 8 336 11.3 25.7 0.00 0.00 0.00 43 1010.1
20260506200023 8 320 16.1 25.7 0.00 0.00 0.00 43 1010.2
20260506194520 8 335 16.1 25.7 0.00 0.00 0.00 42 1010.3
20260506191518 8 319 9.7 29.0 0.00 0.00 0.00 42 1010.6
20260506190012 7 317 16.1 30.6 0.00 0.00 0.00 44 1010.7
20260506184510 7 327 14.5 25.7 0.00 0.00 0.00 44 1010.8
20260506183011 7 306 12.9 29.0 0.00 0.00 0.00 45 1011.0
20260506181507 7 314 12.9 33.8 0.00 0.00 0.00 45 1011.3
20260506180007 7 290 12.9 27.4 0.00 0.00 0.00 46 1011.5
20260506174502 6 308 14.5 25.7 0.00 0.00 0.00 45 1011.7
20260506173002 6 296 12.9 27.4 0.00 0.00 0.00 46 1011.9
20260506171617 6 331 12.9 27.4 0.00 0.00 0.00 46 1011.9
20260506170058 6 320 14.5 22.5 0.00 0.00 0.00 47 1012.1
20260506164606 6 313 19.3 30.6 0.00 0.00 0.00 47 1012.1
20260506163104 5 306 11.3 24.1 0.00 0.00 0.00 49 1012.2
20260506161622 5 296 8.0 24.1 0.00 0.00 0.00 51 1012.2
20260506160051 5 312 12.9 20.9 0.00 0.00 0.00 53 1012.2
20260506154552 5 329 16.1 25.7 0.00 0.00 0.00 52 1012.3
20260506153051 5 304 8.0 22.5 0.00 0.00 0.00 54 1012.3
20260506151548 5 291 3.2 19.3 0.00 0.00 0.00 58 1012.3
20260506150045 4 282 8.0 19.3 0.00 0.00 0.00 57 1012.4
20260506144543 4 306 8.0 19.3 0.00 0.00 0.00 58 1012.5
20260506143043 4 311 9.7 17.7 0.00 0.00 0.00 57 1012.6
20260506141538 3 290 9.7 20.9 0.00 0.00 0.00 61 1012.6
20260506140139 3 295 9.7 17.7 0.00 0.00 0.00 62 1012.7
20260506134533 3 296 8.0 12.9 0.00 0.00 0.00 63 1012.6
20260506133031 3 282 8.0 12.9 0.00 0.00 0.00 65 1012.5
20260506131532 2 304 3.2 8.0 0.00 0.00 0.00 76 1012.4
20260506130025 1 287 1.6 4.8 0.00 0.00 0.00 82 1012.4
20260506124518 1 285 1.6 4.8 0.00 0.00 0.00 83 1012.4
20260506123017 1 277 0.0 3.2 0.00 0.00 0.00 83 1012.2
20260506121614 0 277 0.0 3.2 0.00 0.00 0.00 83 1012.0
20260506120017 0 277 0.0 1.6 0.00 0.00 0.00 83 1011.8
20260506114510 0 277 0.0 3.2 0.00 0.00 0.00 84 1011.7
20260506113007 0 269 0.0 1.6 0.00 0.00 0.00 84 1011.5
20260506111505 0 269 0.0 3.2 0.00 0.00 0.00 84 1011.6
20260506110005 0 270 1.6 3.2 0.00 0.00 0.00 84 1011.5
20260506104505 0 268 0.0 3.2 0.00 0.00 0.00 83 1011.5
20260506103006 0 268 1.6 3.2 0.00 0.00 0.00 83 1011.6
20260506101506 0 273 1.6 3.2 0.00 0.00 0.00 82 1011.5
20260506100001 0 275 1.6 3.2 0.00 0.00 0.00 82 1011.5
20260506094601 0 272 0.0 3.2 0.00 0.00 0.00 82 1011.5